Other Public Products
Issued by NWS Charleston, SC

Current Version | Previous Version | Graphics & Text | Print | Product List | Glossary On
Versions: 1 2 3 4 5 6 7 8 9 10 11 12 13 14 15 16 17 18 19 20 21 22 23 24 25 26 27 28 29 30 31 32 33 34 35 36 37 38 39 40 41 42 43 44 45 46 47 48 49 50
245
FPUS82 KCHS 031327
OPUCHS

TEST...KCHS/KSAV Gateway Observations...TEST
National Weather Service Charleston SC
800 AM EST SAT DEC 03 2016

NOTE: "fair" indicates few or no clouds below 12,000 feet with no
significant weather and/or obstructions to visibility.

SCZ050-WAZ558-NCZ071-TXZ119-213-PAZ071-DCZ001-FLZ074-172-MI076-
NYZ176-178-MAZ016-IL014-TNZ027-NJZ106-GAZ044-MD014-031400-
...Gateway Observations for Charleston International...

CITY           SKY/WX    TMP DP  RH WIND       PRES   REMARKS
Chas Airport   PTCLDY    45  35  68 NE9       30.26R
Seattle        MOCLDY    45  42  89 SW8       30.25R
Charlotte      PTCLDY    42  29  59 CALM      30.27R
Dallas DFW     RAIN      49  45  86 E10       30.11R FOG
Dallas Love    LGT RAIN  48  46  93 E9        30.11R FOG
Philladelphia  MOCLDY    44  30  57 NW17G24   30.10R
Wash National  PTCLDY    43  29  57 W13       30.21R
Baltimore      PTCLDY    41  29  62 W13       30.16R
Miami          MOSUNNY   74  66  76 NE6       30.09R
Detroit        CLOUDY    36  29  75 W7        30.30F WCI  30
Newark         PTCLDY    43  26  51 NW20G35   30.00R
Laguardia      PTCLDY    44  28  53 NW21      30.01R
J F K          PTCLDY    44  25  47 NW16G29   30.01R
Boston Logan   CLEAR     39  27  62 W12       29.83R WCI  32
Ft. Lauderdale MOSUNNY   75  64  68 NE8       30.10R
Chicago O`Hare CLOUDY    32  22  66 W9        30.35R WCI  24
Chicago Midway CLOUDY    33  20  58 NW10      30.35S WCI  25
Houston Bush   CLOUDY    52  50  93 E15G25    29.88F
Houston Hobby  CLOUDY    57  55  93 E15G24    29.88F
Nashville      MOCLDY    39  32  76 N6        30.36S WCI  35
Atlanta        CLOUDY    43  33  68 NW7       30.26S

$$

GAZ044-118-TXZ119-213-NCZ071-DCZ001-MDZ014-506-PAZ021-071-NJZ106-
NYZ176-178-MAZ106-OHZ011-021-055-MIZ076-KYZ091-ILZ014-INZ047-
MNZ060-031400-
...Gateway Observations for Savannah International...

CITY           SKY/WX    TMP DP  RH WIND       PRES   REMARKS
Savannah Arpt  MOCLDY    45  37  73 CALM      30.25S
Atlanta        CLOUDY    43  33  68 NW7       30.26S
Charlotte      PTCLDY    42  29  59 CALM      30.27R
Dallas DFW     RAIN      49  45  86 E10       30.11R FOG
Houston Bush   CLOUDY    52  50  93 E15G25    29.88F
Wash National  PTCLDY    43  29  57 W13       30.21R
Wash Dulles    PTCLDY    39  27  62 W12       30.22R WCI  32
Baltimore      PTCLDY    41  29  62 W13       30.16R
Philadelphia   MOCLDY    44  30  57 NW17G24   30.10R
Newark         PTCLDY    43  26  51 NW20G35   30.00R
Laguardia      PTCLDY    44  28  53 NW21      30.01R
J F K          PTCLDY    44  25  47 NW16G29   30.01R
Boston         CLEAR     39  27  62 W12       29.83R WCI  32
Pittsburg      CLOUDY    37  29  72 W12       30.27R WCI  29
Akron          LGT SNOW  34  29  82 W8        30.29R WCI  27
Cleveland      CLOUDY    38  29  70 SW6       30.31R WCI  33
Cincinnati     CLOUDY    37  34  89 W5        30.34R WCI  33
Columbus       CLOUDY    35  33  89 CALM      30.32S
Detroit        CLOUDY    36  29  75 W7        30.30F WCI  30
Chicago O`Hare CLOUDY    32  22  66 W9        30.35R WCI  24
Minneapolis    CLOUDY    29  20  69 SW6       30.31S WCI  23
Indianapolis   CLOUDY    36  27  69 W8        30.35R WCI  30

$$




USA.gov is the U.S. government's official web portal to all federal, state and local government web resources and services.